Weather History for Mandan, ND

Change the Weather History Date:

Tuesday, March 26, 2013

  Actual Average (KBIS) Record (KBIS)
Temperature  
Mean Temperature 19 °F 34 °F  
Max Temperature 32 °F 46 °F 74 °F (1960)
Min Temperature 6 °F 23 °F -13 °F (1964)
Degree Days  
Heating Degree Days 46 31  
Month to date heating degree days 943  
Since 1 July heating degree days 7374  
Cooling Degree Days 0 0  
Month to date cooling degree days 0  
Year to date cooling degree days 0  
Moisture  
Dew Point 16 °F    
Average Humidity 89    
Maximum Humidity 100    
Minimum Humidity 64    
Precipitation  
Precipitation 0.00 in 0.03 in 1.15 in (1950)
Month to date precipitation 0.71  
Year to date precipitation 1.65  
Snow  
Snow 0.00 in 0.20 in 11.90 in (1950)
Month to date snowfall 7.8  
Since 1 July snowfall 45.3  
Snow Depth -    
Sea Level Pressure  
Sea Level Pressure 30.20 in    
Wind  
Wind Speed 8 mph (SE)    
Max Wind Speed 15 mph    
Max Gust Speed 22 mph    
Visibility 10 miles    
Events      
T = Trace of Precipitation, MM = Missing Value Source: NWS Daily Summary

Daily Weather History Graph

Daily Weather History Graph

Search for Another Location

Airport:

Trip Planner

Search our weather history database for the weather conditions in past years. The results will help you decide how hot, cold, wet, or windy it might be!

Date:

Astronomy

Mar. 26, 2013 Rise Set
Actual Time 7:34 AM CDT 8:04 PM CDT
Civil Twilight 7:03 AM CDT 8:35 PM CDT
Nautical Twilight 6:27 AM CDT 9:11 PM CDT
Astronomical Twilight 5:50 AM CDT 9:49 PM CDT
Moon 7:45 PM CDT (3/26) 6:52 AM CDT (3/26)
Length of Visible Light 13h 31m
Length of Day
12h 30m
Waxing Gibbous, 99% of the Moon is Illuminated
Mar 26
Waxing Gibbous
Mar 27
Full
Apr 2
Last Quarter
Apr 10
New
Apr 18
First Quarter

Hourly Weather History & Observations

Time (CDT) Temp. Windchill Dew Point Humidity Pressure Visibility Wind Dir Wind Speed Gust Speed Precip Events Conditions
12:15 AM 14.0 °F 2.9 °F 14.0 °F 100% 30.30 in 10.0 mi ESE 8.1 mph - N/A   Clear
12:35 AM 12.2 °F 1.7 °F 12.2 °F 100% 30.29 in 10.0 mi ESE 6.9 mph - N/A   Clear
12:55 AM 14.0 °F 5.1 °F 14.0 °F 100% 30.29 in 10.0 mi ESE 5.8 mph - N/A   Clear
1:15 AM 10.4 °F 0.8 °F 10.4 °F 100% 30.29 in 10.0 mi SE 5.8 mph - N/A   Clear
1:35 AM 10.4 °F 2.2 °F 10.4 °F 100% 30.28 in 10.0 mi SE 4.6 mph - N/A   Clear
1:55 AM 10.4 °F 0.8 °F 10.4 °F 100% 30.28 in 10.0 mi SE 5.8 mph - N/A   Clear
2:15 AM 10.4 °F 0.8 °F 10.4 °F 100% 30.27 in 10.0 mi SE 5.8 mph - N/A   Clear
2:35 AM 10.4 °F 0.8 °F 10.4 °F 100% 30.27 in 10.0 mi SE 5.8 mph - N/A   Clear
2:55 AM 10.4 °F 2.2 °F 10.4 °F 100% 30.26 in 10.0 mi SE 4.6 mph - N/A   Clear
3:15 AM 10.4 °F 2.2 °F 10.4 °F 100% 30.26 in 9.0 mi ESE 4.6 mph - N/A   Clear
3:35 AM 8.6 °F 0.1 °F 8.6 °F 100% 30.26 in 8.0 mi SE 4.6 mph - N/A   Clear
3:55 AM 8.6 °F -2.6 °F 8.6 °F 100% 30.25 in 9.0 mi SE 6.9 mph - N/A   Clear
4:15 AM 8.6 °F -2.6 °F 8.6 °F 100% 30.25 in 10.0 mi SE 6.9 mph - N/A   Clear
4:35 AM 8.6 °F -2.6 °F 8.6 °F 100% 30.24 in 10.0 mi SE 6.9 mph - N/A   Clear
4:55 AM 8.6 °F -2.6 °F 8.6 °F 100% 30.24 in 10.0 mi ESE 6.9 mph - N/A   Clear
5:15 AM 8.6 °F -1.3 °F 8.6 °F 100% 30.24 in 10.0 mi SE 5.8 mph - N/A   Clear
5:35 AM 8.6 °F -1.3 °F 8.6 °F 100% 30.23 in 10.0 mi ESE 5.8 mph - N/A   Clear
5:55 AM 8.6 °F -1.3 °F 6.8 °F 92% 30.23 in 10.0 mi East 5.8 mph - N/A   Clear
6:15 AM 6.8 °F -4.8 °F 6.8 °F 100% 30.23 in 10.0 mi ESE 6.9 mph - N/A   Clear
6:35 AM 6.8 °F -4.8 °F 6.8 °F 100% 30.23 in 10.0 mi ESE 6.9 mph - N/A   Clear
6:55 AM 6.8 °F -5.9 °F 6.8 °F 100% 30.23 in 10.0 mi ESE 8.1 mph - N/A   Clear
7:15 AM 6.8 °F -3.5 °F 6.8 °F 100% 30.23 in 10.0 mi ESE 5.8 mph - N/A   Clear
7:35 AM 6.8 °F -3.5 °F 5.0 °F 92% 30.23 in 10.0 mi ESE 5.8 mph - N/A   Clear
7:55 AM 6.8 °F -3.5 °F 6.8 °F 100% 30.23 in 10.0 mi SE 5.8 mph - N/A   Clear
8:15 AM 8.6 °F -1.3 °F 8.6 °F 100% 30.23 in 10.0 mi ESE 5.8 mph - N/A   Clear
8:35 AM 10.4 °F -1.5 °F 10.4 °F 100% 30.22 in 10.0 mi SE 8.1 mph - N/A   Clear
8:55 AM 10.4 °F -2.4 °F 10.4 °F 100% 30.22 in 10.0 mi ESE 9.2 mph - N/A   Clear
9:15 AM 12.2 °F 0.7 °F 12.2 °F 100% 30.22 in 10.0 mi SE 8.1 mph - N/A   Clear
9:35 AM 14.0 °F 3.9 °F 14.0 °F 100% 30.21 in 10.0 mi ESE 6.9 mph - N/A   Clear
9:55 AM 14.0 °F 2.9 °F 14.0 °F 100% 30.22 in 10.0 mi ESE 8.1 mph - N/A   Clear
10:15 AM 15.8 °F 5.1 °F 15.8 °F 100% 30.21 in 10.0 mi ESE 8.1 mph - N/A   Clear
10:35 AM 17.6 °F 7.3 °F 17.6 °F 100% 30.21 in 10.0 mi SE 8.1 mph - N/A   Clear
10:55 AM 19.4 °F 9.5 °F 19.4 °F 100% 30.21 in 10.0 mi SE 8.1 mph - N/A   Clear
11:15 AM 21.2 °F 10.1 °F 21.2 °F 100% 30.21 in 10.0 mi SE 10.4 mph - N/A   Clear
11:35 AM 23.0 °F 11.7 °F 23.0 °F 100% 30.20 in 10.0 mi SE 11.5 mph - N/A   Clear
11:55 AM 24.8 °F 14.6 °F 21.2 °F 86% 30.20 in 10.0 mi SE 10.4 mph - N/A   Mostly Cloudy
12:15 PM 24.8 °F 14.0 °F 19.4 °F 80% 30.20 in 10.0 mi SE 11.5 mph 17.3 mph N/A   Mostly Cloudy
12:35 PM 24.8 °F 13.4 °F 19.4 °F 80% 30.20 in 10.0 mi SE 12.7 mph 21.9 mph N/A   Mostly Cloudy
12:55 PM 26.6 °F 16.2 °F 23.0 °F 86% 30.19 in 10.0 mi SE 11.5 mph 16.1 mph N/A   Mostly Cloudy
1:15 PM 26.6 °F 14.7 °F 23.0 °F 86% 30.19 in 10.0 mi SE 15.0 mph - N/A   Scattered Clouds
1:35 PM 28.4 °F 18.0 °F 21.2 °F 74% 30.18 in 10.0 mi SE 12.7 mph - N/A   Partly Cloudy
1:55 PM 28.4 °F 17.5 °F 23.0 °F 80% 30.18 in 10.0 mi SE 13.8 mph - N/A   Clear
2:15 PM 30.2 °F 19.8 °F 23.0 °F 75% 30.17 in 10.0 mi SE 13.8 mph 17.3 mph N/A   Clear
2:35 PM 30.2 °F 20.8 °F 19.4 °F 64% 30.17 in 10.0 mi SSE 11.5 mph - N/A   Clear
2:55 PM 32.0 °F 23.0 °F 21.2 °F 64% 30.16 in 10.0 mi SE 11.5 mph - N/A   Clear
3:15 PM 32.0 °F 22.5 °F 23.0 °F 69% 30.15 in 10.0 mi ESE 12.7 mph 17.3 mph N/A   Clear
3:35 PM 32.0 °F 22.1 °F 23.0 °F 69% 30.15 in 10.0 mi SE 13.8 mph 18.4 mph N/A   Clear
3:55 PM 32.0 °F 22.1 °F 21.2 °F 64% 30.14 in 10.0 mi SE 13.8 mph - N/A   Clear
4:15 PM 32.0 °F 23.0 °F 21.2 °F 64% 30.13 in 10.0 mi SE 11.5 mph 18.4 mph N/A   Clear
4:35 PM 32.0 °F 22.5 °F 23.0 °F 69% 30.13 in 10.0 mi SE 12.7 mph 19.6 mph N/A   Clear
4:55 PM 32.0 °F 23.0 °F 21.2 °F 64% 30.13 in 10.0 mi SE 11.5 mph - N/A   Clear
5:15 PM 32.0 °F 22.5 °F 23.0 °F 69% 30.13 in 10.0 mi ESE 12.7 mph 18.4 mph N/A   Clear
5:35 PM 32.0 °F 22.1 °F 23.0 °F 69% 30.14 in 10.0 mi SE 13.8 mph - N/A   Clear
5:55 PM 32.0 °F 23.6 °F 21.2 °F 64% 30.14 in 10.0 mi SE 10.4 mph - N/A   Clear
6:15 PM 32.0 °F 23.0 °F 21.2 °F 64% 30.15 in 10.0 mi SE 11.5 mph - N/A   Clear
6:35 PM 32.0 °F 23.6 °F 23.0 °F 69% 30.15 in 10.0 mi SE 10.4 mph - N/A   Clear
6:55 PM 32.0 °F 23.0 °F 23.0 °F 69% 30.15 in 10.0 mi ESE 11.5 mph - N/A   Clear
7:15 PM 30.2 °F 21.9 °F 23.0 °F 75% 30.15 in 10.0 mi SE 9.2 mph - N/A   Clear
7:35 PM 28.4 °F 19.1 °F 23.0 °F 80% 30.15 in 10.0 mi ESE 10.4 mph - N/A   Clear
7:55 PM 26.6 °F 18.2 °F 23.0 °F 86% 30.15 in 10.0 mi SE 8.1 mph - N/A   Clear
8:15 PM 26.6 °F 19.1 °F 23.0 °F 86% 30.15 in 10.0 mi SE 6.9 mph - N/A   Clear
8:35 PM 24.8 °F 14.6 °F 23.0 °F 93% 30.15 in 10.0 mi ESE 10.4 mph - N/A   Clear
8:55 PM 24.8 °F 14.6 °F 21.2 °F 86% 30.15 in 10.0 mi ESE 10.4 mph - N/A   Clear
9:15 PM 24.8 °F 15.3 °F 21.2 °F 86% 30.15 in 10.0 mi East 9.2 mph - N/A   Clear
9:35 PM 23.0 °F 12.4 °F 21.2 °F 93% 30.16 in 10.0 mi ESE 10.4 mph - N/A   Clear
9:55 PM 23.0 °F 13.1 °F 19.4 °F 86% 30.16 in 10.0 mi SE 9.2 mph - N/A   Clear
10:15 PM 19.4 °F 8.6 °F 19.4 °F 100% 30.16 in 10.0 mi SE 9.2 mph - N/A   Clear
10:35 PM 21.2 °F 11.7 °F 19.4 °F 93% 30.17 in 10.0 mi ESE 8.1 mph - N/A   Clear
10:55 PM 19.4 °F 9.5 °F 19.4 °F 100% 30.18 in 10.0 mi ESE 8.1 mph - N/A   Clear
11:15 PM 19.4 °F 8.6 °F 19.4 °F 100% 30.17 in 10.0 mi ESE 9.2 mph - N/A   Clear
11:35 PM 19.4 °F 9.5 °F 19.4 °F 100% 30.18 in 10.0 mi SE 8.1 mph - N/A   Clear
11:55 PM 17.6 °F 8.2 °F 17.6 °F 100% 30.17 in 10.0 mi SE 6.9 mph - N/A   Clear